StationID,Date,MaxTemp,MinTemp,Precipitation,Snowfall,SnowDepth
"CA001030600","1903-02-01",37.04,28.94,0.00,0.00,
"CA001030600","1903-02-02",35.96,28.94,46.00,0.00,
"CA001030600","1903-02-03",39.02,30.92,86.00,0.00,
"CA001030600","1903-02-04",37.94,28.04,0.00,0.00,
"CA001030600","1903-02-05",37.94,26.96,0.00,0.00,
"CA001030600","1903-02-06",39.92,30.02,89.00,0.00,
"CA001030600","1903-02-07",42.98,30.02,213.00,0.00,
"CA001030600","1903-02-08",48.02,33.08,523.00,0.00,
"CA001030600","1903-02-09",46.94,35.96,295.00,0.00,
"CA001030600","1903-02-10",39.02,30.92,0.00,0.00,
"CA001030600","1903-02-11",39.02,28.94,0.00,0.00,
"CA001030600","1903-02-12",39.02,28.04,0.00,0.00,
"CA001030600","1903-02-13",37.04,26.96,0.00,0.00,
"CA001030600","1903-02-14",37.04,28.04,0.00,0.00,
"CA001030600","1903-02-15",41.00,32.00,0.00,0.00,
"CA001030600","1903-02-16",41.00,30.02,0.00,0.00,
"CA001030600","1903-02-17",42.98,28.94,0.00,0.00,
"CA001030600","1903-02-18",42.98,28.04,0.00,0.00,
"CA001030600","1903-02-19",46.94,30.02,0.00,0.00,
"CA001030600","1903-02-20",51.08,39.02,43.00,0.00,
"CA001030600","1903-02-21",50.00,42.08,38.00,0.00,
"CA001030600","1903-02-22",53.96,39.92,0.00,0.00,
"CA001030600","1903-02-23",51.08,35.06,0.00,0.00,
"CA001030600","1903-02-24",46.04,33.08,0.00,0.00,
"CA001030600","1903-02-25",42.98,37.94,0.00,0.00,
"CA001030600","1903-02-26",46.94,35.96,0.00,0.00,
"CA001030600","1903-02-27",51.98,30.92,3.00,0.00,
"CA001030600","1903-02-28",48.92,32.00,0.00,0.00,
"CA001030600","1903-03-01",48.02,33.08,0.00,0.00,
"CA001030600","1903-03-02",46.04,32.00,0.00,0.00,
"CA001030600","1903-03-03",48.02,32.00,0.00,0.00,
"CA001030600","1903-03-04",48.02,28.04,0.00,0.00,
"CA001030600","1903-03-05",46.04,26.96,0.00,0.00,
"CA001030600","1903-03-06",46.04,33.08,124.00,0.00,
"CA001030600","1903-03-07",39.92,32.00,114.00,0.00,
"CA001030600","1903-03-08",37.04,28.04,8.00,0.00,
"CA001030600","1903-03-09",39.92,32.00,160.00,0.00,
"CA001030600","1903-03-10",35.06,30.02,51.00,51.00,
"CA001030600","1903-03-11",37.04,26.96,25.00,25.00,
"CA001030600","1903-03-12",37.94,24.08,0.00,0.00,
"CA001030600","1903-03-13",46.04,26.96,0.00,0.00,
"CA001030600","1903-03-14",41.00,32.00,0.00,0.00,
"CA001030600","1903-03-15",46.04,33.08,0.00,0.00,
"CA001030600","1903-03-16",46.04,30.02,0.00,0.00,
"CA001030600","1903-03-17",48.02,32.00,0.00,0.00,
"CA001030600","1903-03-18",50.00,28.94,0.00,0.00,
"CA001030600","1903-03-19",50.00,28.94,0.00,0.00,
"CA001030600","1903-03-20",46.94,28.94,0.00,0.00,
"CA001030600","1903-03-21",53.96,30.02,0.00,0.00,
"CA001030600","1903-03-22",55.94,32.00,0.00,0.00,
"CA001030600","1903-03-23",55.94,33.08,0.00,0.00,
"CA001030600","1903-03-24",44.96,33.08,0.00,0.00,
"CA001030600","1903-03-25",48.02,32.00,0.00,0.00,
"CA001030600","1903-03-26",48.02,35.06,23.00,0.00,
"CA001030600","1903-03-27",57.92,42.08,328.00,0.00,
"CA001030600","1903-03-28",51.08,39.92,239.00,0.00,
"CA001030600","1903-03-29",55.94,41.00,74.00,0.00,
"CA001030600","1903-03-30",55.94,42.08,150.00,0.00,
"CA001030600","1903-03-31",48.02,39.02,46.00,0.00,
"CA001030600","1903-04-01",50.00,32.00,0.00,0.00,
"CA001030600","1903-04-02",48.02,33.08,0.00,0.00,
"CA001030600","1903-04-03",48.02,35.96,130.00,0.00,
"CA001030600","1903-04-04",48.02,30.92,0.00,0.00,
"CA001030600","1903-04-05",46.04,35.96,8.00,0.00,
"CA001030600","1903-04-06",48.02,41.00,302.00,0.00,
"CA001030600","1903-04-07",46.94,39.92,251.00,0.00,
"CA001030600","1903-04-08",44.96,33.98,74.00,0.00,
"CA001030600","1903-04-09",48.02,30.92,71.00,0.00,
"CA001030600","1903-04-10",46.04,28.94,0.00,0.00,
"CA001030600","1903-04-11",48.92,30.02,0.00,0.00,
"CA001030600","1903-04-12",46.94,35.96,99.00,0.00,
"CA001030600","1903-04-13",46.94,32.00,234.00,0.00,
"CA001030600","1903-04-14",48.02,30.92,0.00,0.00,
"CA001030600","1903-04-15",53.06,33.98,30.00,0.00,
"CA001030600","1903-04-16",53.06,33.08,0.00,0.00,
"CA001030600","1903-04-17",50.00,33.08,0.00,0.00,
"CA001030600","1903-04-18",46.94,39.02,94.00,0.00,
"CA001030600","1903-04-19",51.98,35.06,0.00,0.00,
"CA001030600","1903-04-20",55.04,35.96,127.00,0.00,
"CA001030600","1903-04-21",51.08,44.06,282.00,0.00,
"CA001030600","1903-04-22",53.96,42.98,122.00,0.00,
"CA001030600","1903-04-23",53.96,42.08,76.00,0.00,
"CA001030600","1903-04-24",53.96,42.98,0.00,0.00,
"CA001030600","1903-04-25",51.08,44.96,48.00,0.00,
"CA001030600","1903-04-26",55.94,39.92,0.00,0.00,
"CA001030600","1903-04-27",55.94,37.04,0.00,0.00,
"CA001030600","1903-04-28",64.04,35.96,0.00,0.00,
"CA001030600","1903-04-29",57.02,44.96,46.00,0.00,
"CA001030600","1903-04-30",51.08,42.08,61.00,0.00,
"CA001030600","1903-05-01",53.06,39.92,0.00,0.00,
"CA001030600","1903-05-02",57.02,39.02,0.00,0.00,
"CA001030600","1903-05-03",57.02,42.98,0.00,0.00,
"CA001030600","1903-05-04",53.96,42.98,0.00,0.00,
"CA001030600","1903-05-05",55.04,42.98,0.00,0.00,
"CA001030600","1903-05-06",51.08,41.00,102.00,0.00,
"CA001030600","1903-05-07",48.02,39.92,229.00,0.00,
"CA001030600","1903-05-08",55.94,39.92,8.00,0.00,
"CA001030600","1903-05-09",51.98,39.02,0.00,0.00,
"CA001030600","1903-05-10",55.94,44.06,0.00,0.00,
"CA001030600","1903-05-11",57.92,44.06,3.00,0.00,
"CA001030600","1903-05-12",59.00,48.02,460.00,0.00,
"CA001030600","1903-05-13",57.92,46.04,193.00,0.00,
"CA001030600","1903-05-14",50.00,44.96,142.00,0.00,
"CA001030600","1903-05-15",48.92,42.08,183.00,0.00,
"CA001030600","1903-05-16",55.94,39.92,0.00,0.00,
"CA001030600","1903-05-17",55.04,42.08,0.00,0.00,
"CA001030600","1903-05-18",51.08,37.94,0.00,0.00,
"CA001030600","1903-05-19",50.00,41.00,0.00,0.00,
"CA001030600","1903-05-20",53.06,37.94,36.00,0.00,
"CA001030600","1903-05-21",55.04,35.06,0.00,0.00,
"CA001030600","1903-05-22",55.94,42.08,0.00,0.00,
"CA001030600","1903-05-23",57.92,39.02,0.00,0.00,
"CA001030600","1903-05-24",60.08,44.06,0.00,0.00,
"CA001030600","1903-05-25",53.06,48.02,25.00,0.00,
"CA001030600","1903-05-26",53.96,46.04,0.00,0.00,
"CA001030600","1903-05-27",50.00,42.98,30.00,0.00,
"CA001030600","1903-05-28",55.04,44.96,15.00,0.00,
"CA001030600","1903-05-29",60.08,51.08,99.00,0.00,
"CA001030600","1903-05-30",57.92,48.92,500.00,0.00,
"CA001030600","1903-05-31",55.04,46.94,0.00,0.00,
"CA001030600","1903-06-01",57.02,39.02,0.00,0.00,
"CA001030600","1903-06-02",57.92,46.04,0.00,0.00,
"CA001030600","1903-06-03",55.94,39.02,25.00,0.00,
"CA001030600","1903-06-04",59.00,48.02,79.00,0.00,
"CA001030600","1903-06-05",60.08,50.00,20.00,0.00,
"CA001030600","1903-06-06",69.98,48.92,0.00,0.00,
"CA001030600","1903-06-07",80.06,55.94,0.00,0.00,
"CA001030600","1903-06-08",71.06,55.94,0.00,0.00,
"CA001030600","1903-06-09",64.94,51.98,0.00,0.00,
"CA001030600","1903-06-10",69.98,51.98,0.00,0.00,
"CA001030600","1903-06-11",60.08,51.98,5.00,0.00,
"CA001030600","1903-06-12",57.02,51.08,51.00,0.00,
"CA001030600","1903-06-13",69.08,50.00,0.00,0.00,
"CA001030600","1903-06-14",69.08,50.00,0.00,0.00,
"CA001030600","1903-06-15",62.96,50.00,0.00,0.00,
"CA001030600","1903-06-16",62.06,51.08,20.00,0.00,
"CA001030600","1903-06-17",60.08,53.06,53.00,0.00,
"CA001030600","1903-06-18",64.04,50.00,71.00,0.00,
"CA001030600","1903-06-19",64.04,50.00,13.00,0.00,
"CA001030600","1903-06-20",64.94,53.96,0.00,0.00,
"CA001030600","1903-06-21",59.00,48.92,69.00,0.00,
"CA001030600","1903-06-22",57.92,48.92,53.00,0.00,
"CA001030600","1903-06-23",59.00,48.92,20.00,0.00,
"CA001030600","1903-06-24",60.98,51.98,315.00,0.00,
"CA001030600","1903-06-25",69.08,46.04,3.00,0.00,
"CA001030600","1903-06-26",64.04,46.04,310.00,0.00,
"CA001030600","1903-06-27",59.00,51.98,140.00,0.00,
"CA001030600","1903-06-28",60.08,50.00,0.00,0.00,
"CA001030600","1903-06-29",64.94,42.98,0.00,0.00,
"CA001030600","1903-06-30",59.00,42.98,178.00,0.00,
"CA001030600","1903-07-01",64.04,48.02,401.00,0.00,
"CA001030600","1903-07-02",62.96,50.00,0.00,0.00,
"CA001030600","1903-07-03",60.08,46.94,0.00,0.00,
"CA001030600","1903-07-04",60.08,51.98,0.00,0.00,
"CA001030600","1903-07-05",64.04,51.98,0.00,0.00,
"CA001030600","1903-07-06",66.02,48.92,0.00,0.00,
"CA001030600","1903-07-07",68.00,48.02,0.00,0.00,
"CA001030600","1903-07-08",62.06,44.96,0.00,0.00,
"CA001030600","1903-07-09",69.98,48.02,0.00,0.00,
"CA001030600","1903-07-10",66.02,48.02,0.00,0.00,
"CA001030600","1903-07-11",71.06,51.08,0.00,0.00,
"CA001030600","1903-07-12",66.92,53.06,0.00,0.00,
"CA001030600","1903-07-13",66.92,51.08,0.00,0.00,
"CA001030600","1903-07-14",64.94,50.00,0.00,0.00,
"CA001030600","1903-07-15",66.92,55.04,56.00,0.00,
"CA001030600","1903-07-16",69.08,50.00,0.00,0.00,
"CA001030600","1903-07-17",69.98,51.98,0.00,0.00,
"CA001030600","1903-07-18",71.06,50.00,0.00,0.00,
"CA001030600","1903-07-19",62.96,53.06,0.00,0.00,
"CA001030600","1903-07-20",77.00,53.06,0.00,0.00,
"CA001030600","1903-07-21",69.08,50.00,0.00,0.00,
"CA001030600","1903-07-22",64.94,50.00,3.00,0.00,
"CA001030600","1903-07-23",64.04,53.96,28.00,0.00,
"CA001030600","1903-07-24",60.08,53.06,51.00,0.00,
"CA001030600","1903-07-25",60.98,44.96,0.00,0.00,
"CA001030600","1903-07-26",69.08,51.08,0.00,0.00,
"CA001030600","1903-07-27",62.06,51.08,0.00,0.00,
"CA001030600","1903-07-28",69.08,50.00,0.00,0.00,
"CA001030600","1903-07-29",66.92,51.08,0.00,0.00,
"CA001030600","1903-07-30",68.00,50.00,0.00,0.00,
"CA001030600","1903-07-31",69.08,51.08,0.00,0.00,
"CA001030600","1903-08-01",69.98,50.00,0.00,0.00,
"CA001030600","1903-08-02",69.98,53.96,0.00,0.00,
"CA001030600","1903-08-03",71.06,53.06,0.00,0.00,
"CA001030600","1903-08-04",69.98,55.94,0.00,0.00,
"CA001030600","1903-08-05",71.06,57.02,0.00,0.00,
"CA001030600","1903-08-06",71.96,60.08,0.00,0.00,
"CA001030600","1903-08-07",71.06,62.06,0.00,0.00,
"CA001030600","1903-08-08",71.06,59.00,0.00,0.00,
"CA001030600","1903-08-09",69.98,50.00,0.00,0.00,
"CA001030600","1903-08-10",64.94,51.98,0.00,0.00,
"CA001030600","1903-08-11",64.04,50.00,0.00,0.00,
"CA001030600","1903-08-12",62.06,48.02,0.00,0.00,
"CA001030600","1903-08-13",64.04,51.98,0.00,0.00,
"CA001030600","1903-08-14",62.06,51.98,0.00,0.00,
"CA001030600","1903-08-15",62.96,50.00,0.00,0.00,
"CA001030600","1903-08-16",68.00,55.94,5.00,0.00,
"CA001030600","1903-08-17",78.08,53.96,0.00,0.00,
"CA001030600","1903-08-18",78.98,55.04,0.00,0.00,
"CA001030600","1903-08-19",71.96,55.94,183.00,0.00,
"CA001030600","1903-08-20",66.92,57.92,0.00,0.00,
"CA001030600","1903-08-21",75.02,53.06,0.00,0.00,
"CA001030600","1903-08-22",73.94,51.98,0.00,0.00,
"CA001030600","1903-08-23",73.94,53.96,0.00,0.00,
"CA001030600","1903-08-24",69.08,59.00,0.00,0.00,
"CA001030600","1903-08-25",69.98,53.96,0.00,0.00,
"CA001030600","1903-08-26",69.08,53.96,0.00,0.00,
"CA001030600","1903-08-27",64.94,51.98,38.00,0.00,
"CA001030600","1903-08-28",66.02,53.06,25.00,0.00,
"CA001030600","1903-08-29",66.92,48.02,254.00,0.00,
"CA001030600","1903-08-30",66.92,48.02,0.00,0.00,
"CA001030600","1903-08-31",69.98,44.96,0.00,0.00,
"CA001030600","1903-09-01",62.06,44.96,0.00,0.00,
"CA001030600","1903-09-02",69.98,44.06,0.00,0.00,
"CA001030600","1903-09-03",68.00,44.96,0.00,0.00,
"CA001030600","1903-09-04",71.06,44.96,0.00,0.00,
"CA001030600","1903-09-05",66.92,46.04,0.00,0.00,
"CA001030600","1903-09-06",64.94,46.94,18.00,0.00,
"CA001030600","1903-09-07",62.06,50.00,0.00,0.00,
"CA001030600","1903-09-08",66.02,44.96,0.00,0.00,
"CA001030600","1903-09-09",59.00,44.06,191.00,0.00,
"CA001030600","1903-09-10",64.04,50.00,0.00,0.00,
"CA001030600","1903-09-11",59.00,46.94,41.00,0.00,
"CA001030600","1903-09-12",64.04,44.96,0.00,0.00,
"CA001030600","1903-09-26",,,,0.00,
"CA001030600","1903-09-27",57.92,44.06,,0.00,
"CA001030600","1903-09-28",55.94,42.98,201.00,0.00,
"CA001030600","1903-09-29",57.02,41.00,122.00,0.00,
"CA001030600","1903-09-30",57.92,44.06,127.00,0.00,
"CA001030600","1903-10-01",55.94,39.02,0.00,0.00,
"CA001030600","1903-10-02",57.02,39.92,0.00,0.00,
"CA001030600","1903-10-03",55.04,42.98,0.00,0.00,
"CA001030600","1903-10-04",57.02,39.92,127.00,0.00,
"CA001030600","1903-10-05",55.94,39.92,526.00,0.00,
"CA001030600","1903-10-06",55.94,42.08,102.00,0.00,
"CA001030600","1903-10-07",55.94,42.08,25.00,0.00,
"CA001030600","1903-10-08",57.02,42.08,0.00,0.00,
"CA001030600","1903-10-09",53.96,41.00,53.00,0.00,
"CA001030600","1903-10-10",55.94,41.00,599.00,0.00,
"CA001030600","1903-10-11",57.02,44.96,229.00,0.00,
"CA001030600","1903-10-12",62.06,46.04,0.00,0.00,
"CA001030600","1903-10-13",62.96,35.96,0.00,0.00,
"CA001030600","1903-10-14",64.04,35.06,0.00,0.00,
"CA001030600","1903-10-15",62.06,33.98,0.00,0.00,
"CA001030600","1903-10-16",64.04,37.04,0.00,0.00,
"CA001030600","1903-10-17",57.02,41.00,13.00,0.00,
"CA001030600","1903-10-18",60.08,42.98,0.00,0.00,
"CA001030600","1903-10-19",59.00,44.06,0.00,0.00,
"CA001030600","1903-10-20",57.02,39.92,0.00,0.00,
"CA001030600","1903-10-21",57.02,37.94,0.00,0.00,
"CA001030600","1903-10-22",57.92,35.96,0.00,0.00,
"CA001030600","1903-10-23",57.92,37.94,0.00,0.00,
"CA001030600","1903-10-24",55.04,35.96,0.00,0.00,
"CA001030600","1903-10-25",55.04,39.92,0.00,0.00,
"CA001030600","1903-10-26",57.02,41.00,33.00,0.00,
"CA001030600","1903-10-27",55.04,42.08,254.00,0.00,
"CA001030600","1903-10-28",51.08,42.98,409.00,0.00,
"CA001030600","1903-10-29",53.06,44.06,0.00,0.00,
"CA001030600","1903-10-30",50.00,39.92,13.00,0.00,
"CA001030600","1903-10-31",53.06,44.96,953.00,0.00,
"CA001030600","1903-11-01",53.06,44.96,25.00,0.00,
"CA001030600","1903-11-02",55.04,44.96,0.00,0.00,
"CA001030600","1903-11-03",53.06,44.96,406.00,0.00,
"CA001030600","1903-11-04",53.96,44.06,526.00,0.00,
"CA001030600","1903-11-05",51.98,44.96,508.00,0.00,
"CA001030600","1903-11-06",51.08,44.96,178.00,0.00,
"CA001030600","1903-11-07",50.00,35.96,152.00,0.00,
"CA001030600","1903-11-08",44.96,33.08,445.00,0.00,
"CA001030600","1903-11-09",46.04,32.00,127.00,0.00,
"CA001030600","1903-11-10",44.96,30.92,0.00,0.00,
"CA001030600","1903-11-11",46.04,28.94,0.00,0.00,
"CA001030600","1903-11-12",35.06,30.02,206.00,3.00,
"CA001030600","1903-11-13",33.98,28.94,3.00,3.00,
"CA001030600","1903-11-14",35.96,30.02,0.00,0.00,
"CA001030600","1903-11-15",39.02,28.94,0.00,0.00,
"CA001030600","1903-11-16",39.92,30.02,0.00,0.00,
"CA001030600","1903-11-17",37.04,28.94,102.00,0.00,
"CA001030600","1903-11-18",39.92,35.06,76.00,0.00,
"CA001030600","1903-11-19",50.00,37.04,163.00,0.00,
"CA001030600","1903-11-20",50.00,42.08,381.00,0.00,
"CA001030600","1903-11-21",51.08,42.08,229.00,0.00,
"CA001030600","1903-11-22",44.06,35.06,152.00,0.00,
"CA001030600","1903-11-23",39.02,32.00,0.00,0.00,
"CA001030600","1903-11-24",44.96,37.04,0.00,0.00,
"CA001030600","1903-11-25",42.98,39.92,559.00,0.00,
"CA001030600","1903-11-26",42.08,39.02,737.00,0.00,
"CA001030600","1903-11-27",44.06,39.02,102.00,0.00,
"CA001030600","1903-11-28",44.06,42.98,0.00,0.00,
"CA001030600","1903-11-29",44.06,39.02,737.00,0.00,
"CA001030600","1903-11-30",41.00,37.94,635.00,0.00,
"CA001030600","1903-12-01",44.06,35.96,76.00,0.00,
"CA001030600","1903-12-02",35.96,32.00,0.00,0.00,
"CA001030600","1903-12-03",39.92,30.02,0.00,0.00,
"CA001030600","1903-12-04",33.08,30.92,0.00,0.00,
"CA001030600","1903-12-05",39.92,33.98,0.00,0.00,
"CA001030600","1903-12-06",42.08,35.96,0.00,0.00,
"CA001030600","1903-12-07",37.94,32.00,0.00,0.00,
"CA001030600","1903-12-08",33.08,30.02,0.00,0.00,
"CA001030600","1903-12-09",33.98,30.02,0.00,0.00,
"CA001030600","1903-12-10",37.94,33.98,0.00,0.00,
"CA001030600","1903-12-11",42.08,37.04,0.00,0.00,
"CA001030600","1903-12-12",39.92,37.04,0.00,0.00,
"CA001030600","1903-12-13",42.08,35.06,0.00,0.00,
"CA001030600","1903-12-14",41.00,35.06,0.00,0.00,
"CA001030600","1903-12-15",41.00,33.98,508.00,0.00,
"CA001030600","1903-12-16",39.92,35.96,76.00,0.00,
"CA001030600","1903-12-17",39.92,33.98,8.00,0.00,
"CA001030600","1903-12-18",42.08,33.08,5.00,0.00,
"CA001030600","1903-12-19",42.08,33.98,102.00,0.00,
"CA001030600","1903-12-20",44.06,37.04,610.00,0.00,
"CA001030600","1903-12-21",44.06,37.04,0.00,0.00,
"CA001030600","1903-12-22",39.02,33.98,0.00,0.00,
"CA001030600","1903-12-23",37.04,32.00,0.00,0.00,
"CA001030600","1903-12-24",37.04,30.02,0.00,0.00,
"CA001030600","1903-12-25",35.06,28.04,0.00,0.00,
"CA001030600","1903-12-26",35.96,28.04,0.00,0.00,
"CA001030600","1903-12-27",39.92,35.06,0.00,0.00,
"CA001030600","1903-12-28",42.08,35.96,457.00,0.00,
"CA001030600","1903-12-29",42.08,37.94,940.00,0.00,
"CA001030600","1903-12-30",41.00,35.96,127.00,0.00,
"CA001030600","1903-12-31",41.00,37.04,0.00,0.00,
"CA001030600","1904-01-01",44.96,37.94,0.00,0.00,
"CA001030600","1904-01-02",41.00,39.02,356.00,0.00,
"CA001030600","1904-01-03",42.08,37.94,0.00,0.00,
"CA001030600","1904-01-04",44.96,41.00,0.00,0.00,
"CA001030600","1904-01-05",42.08,39.02,229.00,0.00,
"CA001030600","1904-01-06",41.00,39.92,0.00,0.00,
"CA001030600","1904-01-07",42.98,39.02,0.00,0.00,
"CA001030600","1904-01-08",41.00,37.04,0.00,0.00,
"CA001030600","1904-01-09",39.92,37.04,97.00,76.00,
"CA001030600","1904-01-10",41.00,37.94,381.00,0.00,
"CA001030600","1904-01-11",39.92,35.96,610.00,0.00,
"CA001030600","1904-01-12",41.00,37.04,711.00,0.00,
"CA001030600","1904-01-13",39.92,37.04,483.00,0.00,
"CA001030600","1904-01-14",42.98,35.96,76.00,0.00,
"CA001030600","1904-01-15",42.08,37.94,0.00,0.00,
"CA001030600","1904-01-16",39.92,33.98,0.00,0.00,
"CA001030600","1904-01-17",41.00,33.98,406.00,0.00,
"CA001030600","1904-01-18",41.00,35.06,0.00,0.00,
"CA001030600","1904-01-19",39.02,30.02,0.00,0.00,
"CA001030600","1904-01-20",37.04,32.00,13.00,13.00,
"CA001030600","1904-01-21",39.92,35.06,0.00,0.00,
"CA001030600","1904-01-22",42.08,35.96,0.00,0.00,
"CA001030600","1904-01-23",39.92,35.96,51.00,0.00,
"CA001030600","1904-01-24",35.06,30.02,0.00,0.00,
"CA001030600","1904-01-25",41.00,33.98,0.00,0.00,
"CA001030600","1904-01-26",44.06,35.06,0.00,0.00,
"CA001030600","1904-01-27",41.00,35.06,0.00,0.00,
"CA001030600","1904-01-28",41.00,30.02,0.00,0.00,
"CA001030600","1904-01-29",42.98,35.96,0.00,0.00,
"CA001030600","1904-01-30",42.98,35.96,254.00,0.00,
"CA001030600","1904-01-31",41.00,35.96,0.00,0.00,
"CA001030600","1904-02-01",37.04,30.02,0.00,0.00,
"CA001030600","1904-02-02",42.08,32.00,0.00,0.00,
"CA001030600","1904-02-03",41.00,39.02,864.00,0.00,
"CA001030600","1904-02-04",46.04,37.04,254.00,0.00,
"CA001030600","1904-02-05",41.00,33.08,0.00,0.00,
"CA001030600","1904-02-06",37.04,32.00,25.00,25.00,
"CA001030600","1904-02-07",37.04,28.94,25.00,25.00,
"CA001030600","1904-02-08",37.04,24.08,0.00,0.00,
"CA001030600","1904-02-09",39.92,30.02,76.00,76.00,
"CA001030600","1904-02-10",37.04,33.08,622.00,0.00,
"CA001030600","1904-02-11",39.92,33.08,178.00,0.00,
"CA001030600","1904-02-12",42.08,35.96,152.00,0.00,
"CA001030600","1904-02-13",39.92,35.06,178.00,51.00,
"CA001030600","1904-02-14",42.98,37.04,572.00,0.00,
"CA001030600","1904-02-15",42.08,39.02,686.00,0.00,
"CA001030600","1904-02-16",42.08,37.94,914.00,0.00,
"CA001030600","1904-02-17",41.00,37.94,356.00,0.00,
"CA001030600","1904-02-18",39.92,35.06,381.00,0.00,
"CA001030600","1904-02-19",41.00,33.98,30.00,0.00,
"CA001030600","1904-02-20",39.92,33.98,91.00,0.00,
"CA001030600","1904-02-21",46.94,33.98,28.00,0.00,
"CA001030600","1904-02-22",42.98,37.04,104.00,0.00,
"CA001030600","1904-02-23",44.06,32.00,8.00,0.00,
"CA001030600","1904-02-24",44.96,33.08,51.00,0.00,
"CA001030600","1904-02-25",42.98,30.02,127.00,0.00,
"CA001030600","1904-02-26",41.00,35.96,76.00,0.00,
"CA001030600","1904-02-27",42.08,35.96,91.00,0.00,
"CA001030600","1904-02-28",39.02,37.04,0.00,0.00,
"CA001030600","1904-02-29",39.92,28.04,127.00,127.00,
"CA001030600","1904-03-01",39.92,30.02,25.00,25.00,
"CA001030600","1904-03-02",41.00,26.96,81.00,0.00,
"CA001030600","1904-03-03",44.96,35.96,107.00,0.00,
"CA001030600","1904-03-04",44.96,37.04,279.00,0.00,
"CA001030600","1904-03-05",44.96,37.94,160.00,0.00,
"CA001030600","1904-03-06",44.96,39.02,508.00,0.00,
"CA001030600","1904-03-07",46.04,39.02,178.00,0.00,
"CA001030600","1904-03-08",46.04,35.96,30.00,0.00,
"CA001030600","1904-03-09",46.94,39.02,84.00,0.00,
"CA001030600","1904-03-10",42.98,39.92,137.00,0.00,
"CA001030600","1904-03-11",46.04,37.04,257.00,0.00,
"CA001030600","1904-03-12",46.04,37.94,508.00,0.00,
"CA001030600","1904-03-13",42.98,35.06,163.00,0.00,
"CA001030600","1904-03-14",44.06,30.02,0.00,0.00,
"CA001030600","1904-03-15",46.94,32.00,0.00,0.00,
"CA001030600","1904-03-16",44.96,33.98,0.00,0.00,
"CA001030600","1904-03-17",44.06,37.04,267.00,0.00,
"CA001030600","1904-03-18",46.94,37.04,15.00,0.00,
"CA001030600","1904-03-19",46.94,39.02,0.00,0.00,
"CA001030600","1904-03-20",44.06,35.96,10.00,0.00,
"CA001030600","1904-03-21",39.92,33.98,76.00,76.00,
"CA001030600","1904-03-22",48.02,32.00,25.00,25.00,
"CA001030600","1904-03-23",44.96,30.92,0.00,0.00,
"CA001030600","1904-03-24",48.92,39.02,0.00,0.00,
"CA001030600","1904-03-25",50.00,39.92,0.00,0.00,
"CA001030600","1904-03-26",48.92,37.04,0.00,0.00,
"CA001030600","1904-03-27",48.02,35.96,3.00,0.00,
"CA001030600","1904-03-28",53.06,39.92,0.00,0.00,
"CA001030600","1904-03-29",53.96,39.02,0.00,0.00,
"CA001030600","1904-03-30",53.06,37.94,0.00,0.00,
"CA001030600","1904-03-31",59.00,39.02,0.00,0.00,
"CA001030600","1904-04-01",59.00,39.02,0.00,0.00,
"CA001030600","1904-04-02",62.06,39.92,127.00,0.00,
"CA001030600","1904-04-03",60.08,39.92,0.00,0.00,
"CA001030600","1904-04-04",55.94,39.92,76.00,0.00,
"CA001030600","1904-04-05",64.04,41.00,0.00,0.00,
"CA001030600","1904-04-06",64.94,42.08,0.00,0.00,
"CA001030600","1904-04-07",68.00,42.08,0.00,0.00,
"CA001030600","1904-04-08",64.94,39.92,0.00,0.00,
"CA001030600","1904-04-09",69.08,42.98,0.00,0.00,
"CA001030600","1904-04-10",68.00,42.08,0.00,0.00,
"CA001030600","1904-04-11",69.08,41.00,0.00,0.00,
"CA001030600","1904-04-12",60.08,44.96,0.00,0.00,
"CA001030600","1904-04-13",60.08,42.98,0.00,0.00,
"CA001030600","1904-04-14",60.08,42.08,0.00,0.00,
"CA001030600","1904-04-15",55.94,41.00,229.00,0.00,
"CA001030600","1904-04-16",64.94,42.08,25.00,0.00,
"CA001030600","1904-04-17",57.02,44.06,0.00,0.00,
"CA001030600","1904-04-18",60.08,42.98,0.00,0.00,
"CA001030600","1904-04-19",55.94,39.92,0.00,0.00,
"CA001030600","1904-04-20",59.00,42.08,0.00,0.00,
"CA001030600","1904-04-21",60.08,44.96,0.00,0.00,
"CA001030600","1904-04-22",57.02,42.08,0.00,0.00,
"CA001030600","1904-04-23",53.96,44.06,762.00,0.00,
"CA001030600","1904-04-24",55.04,44.06,1016.00,0.00,
"CA001030600","1904-04-25",60.98,44.96,356.00,0.00,
"CA001030600","1904-04-26",62.96,39.92,0.00,0.00,
"CA001030600","1904-04-27",68.00,44.96,0.00,0.00,
"CA001030600","1904-04-28",66.02,46.94,0.00,0.00,
"CA001030600","1904-04-29",60.08,42.98,0.00,0.00,
"CA001030600","1904-04-30",55.04,42.08,0.00,0.00,
"CA001030600","1904-05-01",62.96,42.08,0.00,0.00,
"CA001030600","1904-05-02",64.94,41.00,0.00,0.00,
"CA001030600","1904-05-03",60.08,42.98,229.00,0.00,
"CA001030600","1904-05-04",66.02,41.00,0.00,0.00,
"CA001030600","1904-05-05",62.96,44.06,81.00,0.00,
"CA001030600","1904-05-06",62.96,42.08,84.00,0.00,
"CA001030600","1904-05-07",69.98,44.96,0.00,0.00,
"CA001030600","1904-05-08",69.08,51.98,0.00,0.00,
"CA001030600","1904-05-09",71.06,50.00,0.00,0.00,
"CA001030600","1904-05-10",71.96,51.08,0.00,0.00,
"CA001030600","1904-05-11",71.96,51.08,0.00,0.00,
"CA001030600","1904-05-12",71.96,48.02,0.00,0.00,
"CA001030600","1904-05-13",66.92,50.00,0.00,0.00,
"CA001030600","1904-05-14",64.04,50.00,0.00,0.00,
"CA001030600","1904-05-15",64.94,48.02,0.00,0.00,
"CA001030600","1904-05-16",62.96,46.04,191.00,0.00,
"CA001030600","1904-05-17",62.06,46.04,89.00,0.00,
"CA001030600","1904-05-18",71.06,50.00,0.00,0.00,
"CA001030600","1904-05-19",71.96,51.08,0.00,0.00,
"CA001030600","1904-05-20",75.02,51.98,0.00,0.00,
"CA001030600","1904-05-21",71.96,53.06,0.00,0.00,